SITRO-AIS 7 (FARTUSHNIY)

Last updated on Sun Apr 12 2026 00:03:55 GMT+0000 (Coordinated Universal Time)

1 57194U 23091AE 26101.51923528 .00005585 00000+0 22877-3 0 9997 2 57194 97.5123 164.1557 0011406 350.2698 9.8317 15.24650765154110
UTC large
Height (km)
Speed (km/s)
/
Latitude / Longitude
Inclination (degrees)
Orbital Period (minutes)
Azimuth
Elevation
Range (km)
Doppler Factor

Next 0 passes for location: London (51.5072 / 0.1276)

Sorry there are no passes over London.
SITRO-AIS 7 (FARTUSHNIY)